Tracking 20719 objects as of 25-May-2020
HD Live streaming from Space Station
objects crossing your sky now

IRIDIUM 33 DEB

Track IRIDIUM 33 DEB now!
10-day predictions


NORAD ID: 34696
Int'l Code: 1997-051KT
Perigee: 749.2 km
Apogee: 953.0 km
Inclination: 86.2 °
Period: 101.8 minutes
Semi major axis: 7222 km
RCS: 0.0073 m2 (small)
Launch date: September 14, 1997
Source: United States (US)
Launch site: TYURATAM MISSILE AND SPACE COMPLEX (TTMTR)

Note: This is SATELLITE DEBRIS
aabbcc
Your satellite tracking list
Your tracking list is empty




NASA's NSSDC Master Catalog

Two Line Element Set (TLE):
1 34696U 97051KT  20144.59615873 +.00001647 +00000-0 +77231-3 0  9996
2 34696 086.2122 191.7276 0141135 220.4857 293.2536 14.14517160577275
Source of the keplerian elements: AFSPC